Panama City, FL

4:24 AM CST on January 17, 2018 (GMT -0600)
Northwest Florida Beaches International

Weather History for KECP - September, 2013

Change the Weather History Date:

Sunday, September 29, 2013

  Actual Average Record
Temperature  
Mean Temperature 75 °F -  
Max Temperature 87 °F - 92 °F (2017)
Min Temperature 62 °F - 60 °F (2010)
Degree Days  
Heating Degree Days 0    
Cooling Degree Days 10    
Growing Degree Days 24 (Base 50)    
Moisture  
Dew Point 63 °F    
Average Humidity 72    
Maximum Humidity 100    
Minimum Humidity 44    
Precipitation  
Precipitation 0.00 in - 0.08 in (2014)
Month to date precipitation  
Year to date precipitation  
Sea Level Pressure  
Sea Level Pressure 30.04 in    
Wind  
Wind Speed 6 mph (NNE)    
Max Wind Speed 14 mph    
Max Gust Speed 36 mph    
Visibility 10 miles    
Events      
T = Trace of Precipitation, MM = Missing Value Source: NWS Daily Summary

Daily Weather History Graph

Daily Weather History Graph

Search for Another Location

Airport or City:

Trip Planner

Search our weather history database for the weather conditions in past years. The results will help you decide how hot, cold, wet, or windy it might be!

Date:

Astronomy

Sep. 29, 2013 Rise Set
Actual Time 7:35 AM EDT 7:30 PM EDT
Civil Twilight 7:11 AM EDT 7:54 PM EDT
Nautical Twilight 6:43 AM EDT 8:22 PM EDT
Astronomical Twilight 6:15 AM EDT 8:50 PM EDT
Moon 2:35 AM EDT (9/29) 4:09 PM EDT (9/29)
Length of Visible Light 12h 42m
Length of Day
11h 55m
Waning Crescent, 27% of the Moon is Illuminated
Sep 29
Waning Crescent
Oct 4
New
Oct 11
First Quarter
Oct 18
Full
Oct 26
Last Quarter

Hourly Weather History & Observations

Time (EDT) Temp. Heat Index Dew Point Humidity Pressure Visibility Wind Dir Wind Speed Gust Speed Precip Events Conditions
12:53 AM 66.9 °F - 62.1 °F 84% 30.09 in 10.0 mi NNE 5.8 mph - N/A   Clear
1:53 AM 66.0 °F - 61.0 °F 84% 30.09 in 10.0 mi NE 4.6 mph - N/A   Clear
2:53 AM 64.9 °F - 61.0 °F 87% 30.08 in 10.0 mi NNE 5.8 mph - N/A   Clear
3:53 AM 64.0 °F - 61.0 °F 90% 30.06 in 10.0 mi NE 4.6 mph - N/A   Clear
4:53 AM 63.0 °F - 61.0 °F 93% 30.06 in 10.0 mi Calm Calm - N/A   Clear
5:53 AM 62.1 °F - 61.0 °F 96% 30.07 in 10.0 mi North 3.5 mph - N/A   Clear
6:53 AM 62.1 °F - 61.0 °F 96% 30.08 in 10.0 mi NNE 3.5 mph - N/A   Clear
7:53 AM 62.1 °F - 62.1 °F 100% 30.08 in 10.0 mi NE 4.6 mph - N/A   Clear
8:53 AM 66.0 °F - 63.0 °F 90% 30.08 in 10.0 mi NE 6.9 mph - N/A   Clear
9:53 AM 72.0 °F - 64.9 °F 78% 30.09 in 10.0 mi Variable 4.6 mph - N/A   Clear
10:53 AM 75.9 °F - 66.0 °F 71% 30.09 in 10.0 mi East 8.1 mph - N/A   Clear
11:53 AM 80.1 °F 82.3 °F 66.9 °F 64% 30.08 in 10.0 mi Variable 5.8 mph - N/A   Scattered Clouds
12:53 PM 81.0 °F 82.7 °F 64.9 °F 58% 30.07 in 10.0 mi ENE 5.8 mph - N/A   Scattered Clouds
1:53 PM 84.0 °F 85.4 °F 64.0 °F 51% 30.05 in 10.0 mi NNE 3.5 mph - N/A   Scattered Clouds
2:53 PM 84.0 °F 84.4 °F 61.0 °F 46% 30.01 in 10.0 mi Calm Calm - N/A   Scattered Clouds
3:53 PM 84.9 °F 85.0 °F 61.0 °F 44% 29.99 in 10.0 mi North 10.4 mph 35.7 mph N/A   Partly Cloudy
3:59 PM 84.2 °F 84.4 °F 60.8 °F 45% 29.95 in 10.0 mi NNE 13.8 mph - N/A   Mostly Cloudy
4:53 PM 86.0 °F 86.3 °F 62.1 °F 44% 29.98 in 10.0 mi NNE 13.8 mph - N/A   Mostly Cloudy
5:53 PM 81.0 °F 82.2 °F 63.0 °F 54% 29.98 in 10.0 mi NNE 4.6 mph - N/A   Mostly Cloudy
6:41 PM 80.6 °F 82.3 °F 64.4 °F 58% 29.95 in 10.0 mi NNE 13.8 mph - N/A   Mostly Cloudy
6:53 PM 79.0 °F - 64.9 °F 62% 29.99 in 10.0 mi NNE 13.8 mph - N/A   Mostly Cloudy
7:53 PM 75.0 °F - 66.9 °F 76% 30.00 in 10.0 mi North 4.6 mph - N/A   Scattered Clouds
8:53 PM 73.9 °F - 66.9 °F 79% 30.01 in 10.0 mi North 4.6 mph - N/A   Clear
9:53 PM 73.0 °F - 66.0 °F 79% 30.03 in 10.0 mi North 4.6 mph - N/A   Clear
10:53 PM 71.1 °F - 66.9 °F 87% 30.03 in 10.0 mi NE 3.5 mph - N/A   Partly Cloudy
11:53 PM 69.1 °F - 66.9 °F 93% 30.02 in 10.0 mi NE 3.5 mph - N/A   Clear